Year,Month,Day,Hour,Minute,Value (Times are PST for temperature in C)
2015,03,08,00,00,5.80
2015,03,08,00,01,5.80
2015,03,08,00,02,5.80
2015,03,08,00,03,5.70
2015,03,08,00,04,5.70
2015,03,08,00,05,5.70
2015,03,08,00,06,5.70
2015,03,08,00,07,5.70
2015,03,08,00,08,5.60
2015,03,08,00,09,5.60
2015,03,08,00,10,5.60
2015,03,08,00,11,5.60
2015,03,08,00,12,5.50
2015,03,08,00,13,5.50
2015,03,08,00,14,5.50
2015,03,08,00,15,5.50
2015,03,08,00,16,5.50
2015,03,08,00,17,5.50
2015,03,08,00,18,5.50
2015,03,08,00,19,5.50
2015,03,08,00,20,5.50
2015,03,08,00,21,5.50
2015,03,08,00,22,5.40
2015,03,08,00,23,5.40
2015,03,08,00,24,5.40
2015,03,08,00,25,5.40
2015,03,08,00,26,5.40
2015,03,08,00,27,5.40
2015,03,08,00,28,5.30
2015,03,08,00,29,5.40
2015,03,08,00,30,5.30
2015,03,08,00,31,5.30
2015,03,08,00,32,5.30
2015,03,08,00,33,5.30
2015,03,08,00,34,5.30
2015,03,08,00,35,5.30
2015,03,08,00,36,5.30
2015,03,08,00,37,5.30
2015,03,08,00,38,5.30
2015,03,08,00,39,5.30
2015,03,08,00,40,5.30
2015,03,08,00,41,5.30
2015,03,08,00,42,5.30
2015,03,08,00,43,5.30
2015,03,08,00,44,5.30
2015,03,08,00,45,5.30
2015,03,08,00,46,5.20
2015,03,08,00,47,5.20
2015,03,08,00,48,5.20
2015,03,08,00,49,5.20
2015,03,08,00,50,5.10
2015,03,08,00,51,5.10
2015,03,08,00,52,5.10
2015,03,08,00,53,5.10
2015,03,08,00,54,5.10
2015,03,08,00,55,5.10
2015,03,08,00,56,5.10
2015,03,08,00,57,5.10
2015,03,08,00,58,5.10
2015,03,08,00,59,5.10
2015,03,08,01,00,5.10
2015,03,08,01,01,5.10
2015,03,08,01,02,5.10
2015,03,08,01,03,5.10
2015,03,08,01,04,5.10
2015,03,08,01,05,5.10
2015,03,08,01,06,5.10
2015,03,08,01,07,5.10
2015,03,08,01,08,5.10
2015,03,08,01,09,5.10
2015,03,08,01,10,5.10
2015,03,08,01,11,5.10
2015,03,08,01,12,5.10
2015,03,08,01,13,5.10
2015,03,08,01,14,5.10
2015,03,08,01,15,5.20
2015,03,08,01,16,5.20
2015,03,08,01,17,5.30
2015,03,08,01,18,5.30
2015,03,08,01,19,5.30
2015,03,08,01,20,5.30
2015,03,08,01,21,5.30
2015,03,08,01,22,5.30
2015,03,08,01,23,5.30
2015,03,08,01,24,5.30
2015,03,08,01,25,5.30
2015,03,08,01,26,5.30
2015,03,08,01,27,5.30
2015,03,08,01,28,5.20
2015,03,08,01,29,5.20
2015,03,08,01,30,5.10
2015,03,08,01,31,5.10
2015,03,08,01,32,5.10
2015,03,08,01,33,5.00
2015,03,08,01,34,5.00
2015,03,08,01,35,5.00
2015,03,08,01,36,4.90
2015,03,08,01,37,4.90
2015,03,08,01,38,4.90
2015,03,08,01,39,4.90
2015,03,08,01,40,4.90
2015,03,08,01,41,4.90
2015,03,08,01,42,4.90
2015,03,08,01,43,4.90
2015,03,08,01,44,4.80
2015,03,08,01,45,4.80
2015,03,08,01,46,4.80
2015,03,08,01,47,4.70
2015,03,08,01,48,4.70
2015,03,08,01,49,4.70
2015,03,08,01,50,4.60
2015,03,08,01,51,4.60
2015,03,08,01,52,4.60
2015,03,08,01,53,4.60
2015,03,08,01,54,4.60
2015,03,08,01,55,4.60
2015,03,08,01,56,4.60
2015,03,08,01,57,4.60
2015,03,08,01,58,4.60
2015,03,08,01,59,4.60
2015,03,08,03,00,4.60
2015,03,08,03,01,4.60
2015,03,08,03,02,4.60
2015,03,08,03,06,4.50
2015,03,08,03,07,4.50
2015,03,08,03,08,4.50
2015,03,08,03,09,4.50
2015,03,08,03,10,4.50
2015,03,08,03,11,4.50
2015,03,08,03,12,4.50
2015,03,08,03,13,4.40
2015,03,08,03,14,4.40
2015,03,08,03,15,4.40
2015,03,08,03,16,4.40
2015,03,08,03,17,4.40
2015,03,08,03,18,4.40
2015,03,08,03,19,4.30
2015,03,08,03,20,4.30
2015,03,08,03,21,4.30
2015,03,08,03,22,4.30
2015,03,08,03,23,4.30
2015,03,08,03,24,4.30
2015,03,08,03,25,4.20
2015,03,08,03,26,4.20
2015,03,08,03,27,4.20
2015,03,08,03,28,4.20
2015,03,08,03,29,4.20
2015,03,08,03,30,4.20
2015,03,08,03,31,4.20
2015,03,08,03,32,4.20
2015,03,08,03,33,4.20
2015,03,08,03,34,4.20
2015,03,08,03,35,4.20
2015,03,08,03,36,4.20
2015,03,08,03,37,4.20
2015,03,08,03,38,4.20
2015,03,08,03,39,4.20
2015,03,08,03,40,4.30
2015,03,08,03,41,4.30
2015,03,08,03,42,4.30
2015,03,08,03,43,4.30
2015,03,08,03,44,4.30
2015,03,08,03,45,4.30
2015,03,08,03,46,4.30
2015,03,08,03,47,4.40
2015,03,08,03,48,4.40
2015,03,08,03,49,4.40
2015,03,08,03,50,4.40
2015,03,08,03,51,4.50
2015,03,08,03,52,4.50
2015,03,08,03,53,4.50
2015,03,08,03,54,4.50
2015,03,08,03,55,4.50
2015,03,08,03,56,4.50
2015,03,08,03,57,4.50
2015,03,08,03,58,4.50
2015,03,08,03,59,4.50
2015,03,08,04,00,4.50
2015,03,08,04,01,4.50
2015,03,08,04,02,4.50
2015,03,08,04,03,4.60
2015,03,08,04,04,4.60
2015,03,08,04,05,4.60
2015,03,08,04,06,4.60
2015,03,08,04,07,4.70
2015,03,08,04,08,4.70
2015,03,08,04,09,4.70
2015,03,08,04,10,4.70
2015,03,08,04,11,4.70
2015,03,08,04,12,4.70
2015,03,08,04,13,4.70
2015,03,08,04,14,4.70
2015,03,08,04,15,4.70
2015,03,08,04,16,4.80
2015,03,08,04,17,4.80
2015,03,08,04,18,4.80
2015,03,08,04,19,4.80
2015,03,08,04,20,4.80
2015,03,08,04,21,4.80
2015,03,08,04,22,4.80
2015,03,08,04,23,4.80
2015,03,08,04,24,4.80
2015,03,08,04,25,4.80
2015,03,08,04,26,4.80
2015,03,08,04,27,4.90
2015,03,08,04,28,4.90
2015,03,08,04,29,4.90
2015,03,08,04,30,4.90
2015,03,08,04,31,4.90
2015,03,08,04,32,4.90
2015,03,08,04,33,4.90
2015,03,08,04,34,4.90
2015,03,08,04,35,4.90
2015,03,08,04,36,4.90
2015,03,08,04,37,4.90
2015,03,08,04,38,4.90
2015,03,08,04,39,4.90
2015,03,08,04,40,5.00
2015,03,08,04,41,5.00
2015,03,08,04,42,5.00
2015,03,08,04,43,5.00
2015,03,08,04,44,5.00
2015,03,08,04,45,5.00
2015,03,08,04,46,4.90
2015,03,08,04,47,4.90
2015,03,08,04,48,4.90
2015,03,08,04,49,4.90
2015,03,08,04,50,4.90
2015,03,08,04,51,4.80
2015,03,08,04,52,4.80
2015,03,08,04,53,4.80
2015,03,08,04,54,4.80
2015,03,08,04,55,4.80
2015,03,08,04,56,4.80
2015,03,08,04,57,4.80
2015,03,08,04,58,4.80
2015,03,08,04,59,4.80
2015,03,08,05,00,4.80
2015,03,08,05,01,4.80
2015,03,08,05,02,4.70
2015,03,08,05,03,4.70
2015,03,08,05,04,4.70
2015,03,08,05,05,4.70
2015,03,08,05,06,4.70
2015,03,08,05,07,4.70
2015,03,08,05,08,4.70
2015,03,08,05,09,4.70
2015,03,08,05,10,4.70
2015,03,08,05,11,4.70
2015,03,08,05,12,4.70
2015,03,08,05,13,4.70
2015,03,08,05,14,4.70
2015,03,08,05,15,4.70
2015,03,08,05,16,4.70
2015,03,08,05,17,4.70
2015,03,08,05,18,4.70
2015,03,08,05,19,4.70
2015,03,08,05,20,4.70
2015,03,08,05,21,4.70
2015,03,08,05,22,4.70
2015,03,08,05,23,4.70
2015,03,08,05,24,4.70
2015,03,08,05,25,4.70
2015,03,08,05,26,4.70
2015,03,08,05,27,4.70
2015,03,08,05,28,4.70
2015,03,08,05,29,4.70
2015,03,08,05,30,4.70
2015,03,08,05,31,4.70
2015,03,08,05,32,4.70
2015,03,08,05,33,4.70
2015,03,08,05,34,4.70
2015,03,08,05,35,4.70
2015,03,08,05,36,4.70
2015,03,08,05,37,4.70
2015,03,08,05,38,4.70
2015,03,08,05,39,4.70
2015,03,08,05,40,4.70
2015,03,08,05,41,4.70
2015,03,08,05,42,4.70
2015,03,08,05,43,4.70
2015,03,08,05,44,4.70
2015,03,08,05,45,4.70
2015,03,08,05,46,4.70
2015,03,08,05,47,4.70
2015,03,08,05,48,4.60
2015,03,08,05,49,4.60
2015,03,08,05,50,4.60
2015,03,08,05,51,4.60
2015,03,08,05,52,4.60
2015,03,08,05,53,4.60
2015,03,08,05,54,4.60
2015,03,08,05,55,4.60
2015,03,08,05,56,4.60
2015,03,08,05,57,4.60
2015,03,08,05,58,4.60
2015,03,08,05,59,4.60
2015,03,08,06,00,4.60
2015,03,08,06,01,4.60
2015,03,08,06,02,4.60
2015,03,08,06,03,4.60
2015,03,08,06,04,4.60
2015,03,08,06,05,4.50
2015,03,08,06,06,4.50
2015,03,08,06,07,4.50
2015,03,08,06,08,4.50
2015,03,08,06,09,4.50
2015,03,08,06,10,4.50
2015,03,08,06,11,4.50
2015,03,08,06,12,4.40
2015,03,08,06,13,4.40
2015,03,08,06,14,4.40
2015,03,08,06,15,4.40
2015,03,08,06,16,4.40
2015,03,08,06,17,4.40
2015,03,08,06,18,4.40
2015,03,08,06,19,4.40
2015,03,08,06,20,4.40
2015,03,08,06,21,4.40
2015,03,08,06,22,4.40
2015,03,08,06,23,4.40
2015,03,08,06,24,4.40
2015,03,08,06,25,4.40
2015,03,08,06,26,4.40
2015,03,08,06,27,4.40
2015,03,08,06,28,4.40
2015,03,08,06,29,4.50
2015,03,08,06,30,4.50
2015,03,08,06,31,4.50
2015,03,08,06,32,4.50
2015,03,08,06,33,4.50
2015,03,08,06,34,4.60
2015,03,08,06,35,4.60
2015,03,08,06,36,4.60
2015,03,08,06,37,4.60
2015,03,08,06,38,4.60
2015,03,08,06,39,4.60
2015,03,08,06,40,4.60
2015,03,08,06,41,4.60
2015,03,08,06,42,4.60
2015,03,08,06,43,4.60
2015,03,08,06,44,4.60
2015,03,08,06,45,4.60
2015,03,08,06,46,4.60
2015,03,08,06,47,4.60
2015,03,08,06,48,4.60
2015,03,08,06,49,4.60
2015,03,08,06,50,4.60
2015,03,08,06,51,4.60
2015,03,08,06,52,4.50
2015,03,08,06,53,4.50
2015,03,08,06,54,4.50
2015,03,08,06,55,4.50
2015,03,08,06,56,4.50
2015,03,08,06,57,4.40
2015,03,08,06,58,4.40
2015,03,08,06,59,4.40
2015,03,08,07,00,4.40
2015,03,08,07,01,4.40
2015,03,08,07,02,4.40
2015,03,08,07,03,4.40
2015,03,08,07,04,4.40
2015,03,08,07,05,4.40
2015,03,08,07,06,4.40
2015,03,08,07,07,4.30
2015,03,08,07,08,4.30
2015,03,08,07,09,4.30
2015,03,08,07,10,4.30
2015,03,08,07,11,4.30
2015,03,08,07,12,4.30
2015,03,08,07,13,4.30
2015,03,08,07,14,4.30
2015,03,08,07,15,4.30
2015,03,08,07,16,4.30
2015,03,08,07,17,4.30
2015,03,08,07,18,4.30
2015,03,08,07,19,4.20
2015,03,08,07,20,4.20
2015,03,08,07,21,4.20
2015,03,08,07,22,4.20
2015,03,08,07,23,4.20
2015,03,08,07,24,4.10
2015,03,08,07,25,4.10
2015,03,08,07,26,4.10
2015,03,08,07,27,4.10
2015,03,08,07,28,4.10
2015,03,08,07,29,4.10
2015,03,08,07,30,4.10
2015,03,08,07,31,4.10
2015,03,08,07,32,4.10
2015,03,08,07,33,4.10
2015,03,08,07,34,4.10
2015,03,08,07,35,4.10
2015,03,08,07,36,4.10
2015,03,08,07,37,4.10
2015,03,08,07,38,4.10
2015,03,08,07,39,4.10
2015,03,08,07,40,4.10
2015,03,08,07,41,4.10
2015,03,08,07,42,4.10
2015,03,08,07,43,4.10
2015,03,08,07,44,4.10
2015,03,08,07,45,4.10
2015,03,08,07,46,4.10
2015,03,08,07,47,4.10
2015,03,08,07,48,4.10
2015,03,08,07,49,4.10
2015,03,08,07,50,4.10
2015,03,08,07,51,4.00
2015,03,08,07,52,4.00
2015,03,08,07,53,4.00
2015,03,08,07,54,4.00
2015,03,08,07,55,4.00
2015,03,08,07,56,4.00
2015,03,08,07,57,4.00
2015,03,08,07,58,4.00
2015,03,08,07,59,4.00
2015,03,08,08,00,4.00
2015,03,08,08,01,4.00
2015,03,08,08,02,4.10
2015,03,08,08,03,4.10
2015,03,08,08,04,4.10
2015,03,08,08,05,4.10
2015,03,08,08,06,4.10
2015,03,08,08,07,4.10
2015,03,08,08,08,4.10
2015,03,08,08,09,4.10
2015,03,08,08,10,4.10
2015,03,08,08,11,4.10
2015,03,08,08,12,4.10
2015,03,08,08,13,4.10
2015,03,08,08,14,4.10
2015,03,08,08,15,4.10
2015,03,08,08,16,4.10
2015,03,08,08,17,4.10
2015,03,08,08,18,4.10
2015,03,08,08,19,4.10
2015,03,08,08,20,4.10
2015,03,08,08,21,4.10
2015,03,08,08,22,4.10
2015,03,08,08,23,4.10
2015,03,08,08,24,4.10
2015,03,08,08,25,4.10
2015,03,08,08,26,4.10
2015,03,08,08,27,4.10
2015,03,08,08,28,4.00
2015,03,08,08,29,4.00
2015,03,08,08,30,4.00
2015,03,08,08,31,4.00
2015,03,08,08,32,4.00
2015,03,08,08,33,4.00
2015,03,08,08,34,4.00
2015,03,08,08,35,4.00
2015,03,08,08,36,4.00
2015,03,08,08,37,4.00
2015,03,08,08,38,4.00
2015,03,08,08,39,4.00
2015,03,08,08,40,4.00
2015,03,08,08,41,4.00
2015,03,08,08,42,4.00
2015,03,08,08,43,3.90
2015,03,08,08,44,3.90
2015,03,08,08,45,3.90
2015,03,08,08,46,3.90
2015,03,08,08,47,3.90
2015,03,08,08,48,3.90
2015,03,08,08,49,3.90
2015,03,08,08,50,3.90
2015,03,08,08,51,3.90
2015,03,08,08,52,3.90
2015,03,08,08,53,3.90
2015,03,08,08,54,3.90
2015,03,08,08,55,3.90
2015,03,08,08,56,3.90
2015,03,08,08,57,3.90
2015,03,08,08,58,3.90
2015,03,08,08,59,3.90
2015,03,08,09,00,3.90
2015,03,08,09,01,3.90
2015,03,08,09,02,3.90
2015,03,08,09,03,3.90
2015,03,08,09,04,3.90
2015,03,08,09,05,3.90
2015,03,08,09,06,3.90
2015,03,08,09,07,3.80
2015,03,08,09,08,3.80
2015,03,08,09,09,3.80
2015,03,08,09,10,3.80
2015,03,08,09,11,3.80
2015,03,08,09,12,3.80
2015,03,08,09,13,3.80
2015,03,08,09,14,3.80
2015,03,08,09,15,3.80
2015,03,08,09,16,3.80
2015,03,08,09,17,3.80
2015,03,08,09,18,3.80
2015,03,08,09,19,3.80
2015,03,08,09,20,3.80
2015,03,08,09,21,3.80
2015,03,08,09,22,3.80
2015,03,08,09,23,3.90
2015,03,08,09,24,3.90
2015,03,08,09,25,3.90
2015,03,08,09,26,3.80
2015,03,08,09,27,3.80
2015,03,08,09,28,3.80
2015,03,08,09,29,3.80
2015,03,08,09,30,3.80
2015,03,08,09,31,3.80
2015,03,08,09,32,3.80
2015,03,08,09,33,3.80
2015,03,08,09,34,3.80
2015,03,08,09,35,3.80
2015,03,08,09,36,3.80
2015,03,08,09,37,3.80
2015,03,08,09,38,3.80
2015,03,08,09,39,3.80
2015,03,08,09,40,3.80
2015,03,08,09,41,3.80
2015,03,08,09,42,3.80
2015,03,08,09,43,3.80
2015,03,08,09,44,3.80
2015,03,08,09,45,3.80
2015,03,08,09,46,3.80
2015,03,08,09,47,3.80
2015,03,08,09,48,3.90
2015,03,08,09,49,3.90
2015,03,08,09,50,3.90
2015,03,08,09,51,3.90
2015,03,08,09,52,4.00
2015,03,08,09,53,4.00
2015,03,08,09,54,4.00
2015,03,08,09,55,4.00
2015,03,08,09,56,4.10
2015,03,08,09,57,4.10
2015,03,08,09,58,4.10
2015,03,08,09,59,4.10
2015,03,08,10,00,4.10
2015,03,08,10,01,4.10
2015,03,08,10,02,4.20
2015,03,08,10,03,4.20
2015,03,08,10,04,4.20
2015,03,08,10,05,4.20
2015,03,08,10,06,4.20
2015,03,08,10,07,4.20
2015,03,08,10,08,4.20
2015,03,08,10,09,4.20
2015,03,08,10,10,4.30
2015,03,08,10,11,4.30
2015,03,08,10,12,4.30
2015,03,08,10,13,4.30
2015,03,08,10,14,4.40
2015,03,08,10,15,4.40
2015,03,08,10,16,4.50
2015,03,08,10,17,4.50
2015,03,08,10,18,4.50
2015,03,08,10,19,4.50
2015,03,08,10,20,4.50
2015,03,08,10,21,4.50
2015,03,08,10,22,4.60
2015,03,08,10,23,4.60
2015,03,08,10,24,4.60
2015,03,08,10,25,4.60
2015,03,08,10,26,4.70
2015,03,08,10,27,4.70
2015,03,08,10,28,4.70
2015,03,08,10,29,4.70
2015,03,08,10,30,4.70
2015,03,08,10,31,4.70
2015,03,08,10,32,4.70
2015,03,08,10,33,4.70
2015,03,08,10,34,4.70
2015,03,08,10,35,4.70
2015,03,08,10,36,4.70
2015,03,08,10,37,4.70
2015,03,08,10,38,4.80
2015,03,08,10,39,4.80
2015,03,08,10,40,4.80
2015,03,08,10,41,4.80
2015,03,08,10,42,4.80
2015,03,08,10,43,4.80
2015,03,08,10,44,4.80
2015,03,08,10,45,4.80
2015,03,08,10,46,4.80
2015,03,08,10,47,4.90
2015,03,08,10,48,4.90
2015,03,08,10,49,4.90
2015,03,08,10,50,4.90
2015,03,08,10,51,4.90
2015,03,08,10,52,4.80
2015,03,08,10,53,4.80
2015,03,08,10,54,4.80
2015,03,08,10,55,4.80
2015,03,08,10,56,4.80
2015,03,08,10,57,4.80
2015,03,08,10,58,4.80
2015,03,08,10,59,4.80
2015,03,08,11,00,4.80
2015,03,08,11,01,4.90
2015,03,08,11,02,4.90
2015,03,08,11,03,5.00
2015,03,08,11,04,5.00
2015,03,08,11,05,5.00
2015,03,08,11,06,5.10
2015,03,08,11,07,5.10
2015,03,08,11,08,5.10
2015,03,08,11,09,5.10
2015,03,08,11,10,5.10
2015,03,08,11,11,5.10
2015,03,08,11,12,5.20
2015,03,08,11,13,5.20
2015,03,08,11,14,5.20
2015,03,08,11,15,5.20
2015,03,08,11,16,5.10
2015,03,08,11,17,5.10
2015,03,08,11,18,5.10
2015,03,08,11,19,5.10
2015,03,08,11,20,5.10
2015,03,08,11,21,5.10
2015,03,08,11,22,5.10
2015,03,08,11,23,5.20
2015,03,08,11,24,5.20
2015,03,08,11,25,5.20
2015,03,08,11,26,5.20
2015,03,08,11,27,5.20
2015,03,08,11,28,5.20
2015,03,08,11,29,5.20
2015,03,08,11,30,5.20
2015,03,08,11,31,5.20
2015,03,08,11,32,5.30
2015,03,08,11,33,5.40
2015,03,08,11,34,5.40
2015,03,08,11,35,5.50
2015,03,08,11,36,5.50
2015,03,08,11,37,5.50
2015,03,08,11,38,5.60
2015,03,08,11,39,5.60
2015,03,08,11,40,5.60
2015,03,08,11,41,5.50
2015,03,08,11,42,5.50
2015,03,08,11,43,5.50
2015,03,08,11,44,5.50
2015,03,08,11,45,5.60
2015,03,08,11,46,5.60
2015,03,08,11,47,5.60
2015,03,08,11,48,5.70
2015,03,08,11,49,5.80
2015,03,08,11,50,5.90
2015,03,08,11,51,6.00
2015,03,08,11,52,6.10
2015,03,08,11,53,6.20
2015,03,08,11,54,6.20
2015,03,08,11,55,6.30
2015,03,08,11,56,6.30
2015,03,08,11,57,6.30
2015,03,08,11,58,6.30
2015,03,08,11,59,6.30
2015,03,08,12,00,6.30
2015,03,08,12,01,6.30
2015,03,08,12,02,6.30
2015,03,08,12,03,6.30
2015,03,08,12,04,6.30
2015,03,08,12,05,6.30
2015,03,08,12,06,6.40
2015,03,08,12,07,6.40
2015,03,08,12,08,6.40
2015,03,08,12,09,6.40
2015,03,08,12,10,6.50
2015,03,08,12,11,6.60
2015,03,08,12,12,6.60
2015,03,08,12,13,6.70
2015,03,08,12,14,6.70
2015,03,08,12,15,6.70
2015,03,08,12,16,6.80
2015,03,08,12,17,6.80
2015,03,08,12,18,6.90
2015,03,08,12,19,7.00
2015,03,08,12,20,7.10
2015,03,08,12,21,7.10
2015,03,08,12,22,7.10
2015,03,08,12,23,7.20
2015,03,08,12,24,7.20
2015,03,08,12,25,7.20
2015,03,08,12,26,7.30
2015,03,08,12,27,7.30
2015,03,08,12,28,7.40
2015,03,08,12,29,7.50
2015,03,08,12,30,7.60
2015,03,08,12,31,7.70
2015,03,08,12,32,7.80
2015,03,08,12,33,7.80
2015,03,08,12,34,7.90
2015,03,08,12,35,8.00
2015,03,08,12,36,8.00
2015,03,08,12,37,8.10
2015,03,08,12,38,8.10
2015,03,08,12,39,8.10
2015,03,08,12,40,8.20
2015,03,08,12,41,8.20
2015,03,08,12,42,8.30
2015,03,08,12,43,8.30
2015,03,08,12,44,8.40
2015,03,08,12,45,8.40
2015,03,08,12,46,8.50
2015,03,08,12,47,8.60
2015,03,08,12,48,8.70
2015,03,08,12,49,8.80
2015,03,08,12,50,8.90
2015,03,08,12,51,9.00
2015,03,08,12,52,9.00
2015,03,08,12,53,9.10
2015,03,08,12,54,9.10
2015,03,08,12,55,9.10
2015,03,08,12,56,9.10
2015,03,08,12,57,9.20
2015,03,08,12,58,9.20
2015,03,08,12,59,9.20
2015,03,08,13,00,9.20
2015,03,08,13,01,9.30
2015,03,08,13,02,9.30
2015,03,08,13,03,9.40
2015,03,08,13,04,9.40
2015,03,08,13,05,9.50
2015,03,08,13,06,9.60
2015,03,08,13,07,9.80
2015,03,08,13,08,9.80
2015,03,08,13,09,9.90
2015,03,08,13,10,10.00
2015,03,08,13,11,10.00
2015,03,08,13,12,10.00
2015,03,08,13,13,10.10
2015,03,08,13,14,10.10
2015,03,08,13,15,10.20
2015,03,08,13,16,10.30
2015,03,08,13,17,10.40
2015,03,08,13,18,10.50
2015,03,08,13,19,10.50
2015,03,08,13,20,10.60
2015,03,08,13,21,10.70
2015,03,08,13,22,10.90
2015,03,08,13,23,11.00
2015,03,08,13,24,11.10
2015,03,08,13,25,11.10
2015,03,08,13,26,11.20
2015,03,08,13,27,11.20
2015,03,08,13,28,11.30
2015,03,08,13,29,11.40
2015,03,08,13,30,11.50
2015,03,08,13,31,11.50
2015,03,08,13,32,11.50
2015,03,08,13,33,11.60
2015,03,08,13,34,11.60
2015,03,08,13,35,11.70
2015,03,08,13,36,11.80
2015,03,08,13,37,12.00
2015,03,08,13,38,12.10
2015,03,08,13,39,12.20
2015,03,08,13,40,12.20
2015,03,08,13,41,12.30
2015,03,08,13,42,12.30
2015,03,08,13,43,12.40
2015,03,08,13,44,12.40
2015,03,08,13,45,12.40
2015,03,08,13,46,12.40
2015,03,08,13,47,12.40
2015,03,08,13,48,12.40
2015,03,08,13,49,12.40
2015,03,08,13,50,12.40
2015,03,08,13,51,12.40
2015,03,08,13,52,12.40
2015,03,08,13,53,12.40
2015,03,08,13,54,12.50
2015,03,08,13,55,12.50
2015,03,08,13,56,12.60
2015,03,08,13,57,12.60
2015,03,08,13,58,12.60
2015,03,08,13,59,12.70
2015,03,08,14,00,12.70
2015,03,08,14,01,12.70
2015,03,08,14,02,12.80
2015,03,08,14,03,12.80
2015,03,08,14,04,12.80
2015,03,08,14,05,12.90
2015,03,08,14,06,12.90
2015,03,08,14,07,13.00
2015,03,08,14,08,13.10
2015,03,08,14,09,13.20
2015,03,08,14,10,13.20
2015,03,08,14,11,13.30
2015,03,08,14,12,13.40
2015,03,08,14,13,13.50
2015,03,08,14,14,13.60
2015,03,08,14,15,13.60
2015,03,08,14,16,13.60
2015,03,08,14,17,13.70
2015,03,08,14,18,13.70
2015,03,08,14,19,13.70
2015,03,08,14,20,13.70
2015,03,08,14,21,13.70
2015,03,08,14,22,13.70
2015,03,08,14,23,13.70
2015,03,08,14,24,13.70
2015,03,08,14,25,13.70
2015,03,08,14,26,13.70
2015,03,08,14,27,13.70
2015,03,08,14,28,13.80
2015,03,08,14,29,13.80
2015,03,08,14,30,13.80
2015,03,08,14,31,13.80
2015,03,08,14,32,13.90
2015,03,08,14,33,13.90
2015,03,08,14,34,13.90
2015,03,08,14,35,13.90
2015,03,08,14,36,13.90
2015,03,08,14,37,13.90
2015,03,08,14,38,13.90
2015,03,08,14,39,14.00
2015,03,08,14,40,14.00
2015,03,08,14,41,14.00
2015,03,08,14,42,14.10
2015,03,08,14,43,14.10
2015,03,08,14,44,14.10
2015,03,08,14,45,14.10
2015,03,08,14,46,14.10
2015,03,08,14,47,14.10
2015,03,08,14,48,14.10
2015,03,08,14,49,14.10
2015,03,08,14,50,14.10
2015,03,08,14,51,14.10
2015,03,08,14,52,14.10
2015,03,08,14,53,14.10
2015,03,08,14,54,14.20
2015,03,08,14,55,14.30
2015,03,08,14,56,14.30
2015,03,08,14,57,14.40
2015,03,08,14,58,14.40
2015,03,08,14,59,14.50
2015,03,08,15,00,14.50
2015,03,08,15,01,14.50
2015,03,08,15,02,14.60
2015,03,08,15,03,14.60
2015,03,08,15,04,14.70
2015,03,08,15,05,14.70
2015,03,08,15,06,14.70
2015,03,08,15,07,14.70
2015,03,08,15,08,14.70
2015,03,08,15,09,14.80
2015,03,08,15,10,14.80
2015,03,08,15,11,14.80
2015,03,08,15,12,14.80
2015,03,08,15,13,14.80
2015,03,08,15,14,14.90
2015,03,08,15,15,15.00
2015,03,08,15,16,15.10
2015,03,08,15,17,15.20
2015,03,08,15,18,15.30
2015,03,08,15,19,15.40
2015,03,08,15,20,15.50
2015,03,08,15,21,15.60
2015,03,08,15,22,15.60
2015,03,08,15,23,15.70
2015,03,08,15,24,15.70
2015,03,08,15,25,15.80
2015,03,08,15,26,15.80
2015,03,08,15,27,15.90
2015,03,08,15,28,15.90
2015,03,08,15,29,16.00
2015,03,08,15,30,16.00
2015,03,08,15,31,16.00
2015,03,08,15,32,16.00
2015,03,08,15,33,16.00
2015,03,08,15,34,16.00
2015,03,08,15,35,16.00
2015,03,08,15,36,16.00
2015,03,08,15,37,16.00
2015,03,08,15,38,16.10
2015,03,08,15,39,16.10
2015,03,08,15,40,16.10
2015,03,08,15,41,16.10
2015,03,08,15,42,16.10
2015,03,08,15,43,16.10
2015,03,08,15,44,16.10
2015,03,08,15,45,16.10
2015,03,08,15,46,16.20
2015,03,08,15,47,16.20
2015,03,08,15,48,16.20
2015,03,08,15,49,16.20
2015,03,08,15,50,16.30
2015,03,08,15,51,16.30
2015,03,08,15,52,16.30
2015,03,08,15,53,16.30
2015,03,08,15,54,16.30
2015,03,08,15,55,16.30
2015,03,08,15,56,16.30
2015,03,08,15,57,16.30
2015,03,08,15,58,16.30
2015,03,08,15,59,16.20
2015,03,08,16,00,16.20
2015,03,08,16,01,16.20
2015,03,08,16,02,16.20
2015,03,08,16,03,16.20
2015,03,08,16,04,16.20
2015,03,08,16,05,16.20
2015,03,08,16,06,16.20
2015,03,08,16,07,16.20
2015,03,08,16,08,16.20
2015,03,08,16,09,16.20
2015,03,08,16,10,16.20
2015,03,08,16,11,16.30
2015,03,08,16,12,16.30
2015,03,08,16,13,16.30
2015,03,08,16,14,16.40
2015,03,08,16,15,16.40
2015,03,08,16,16,16.40
2015,03,08,16,17,16.40
2015,03,08,16,18,16.50
2015,03,08,16,19,16.50
2015,03,08,16,20,16.50
2015,03,08,16,21,16.60
2015,03,08,16,22,16.70
2015,03,08,16,23,16.70
2015,03,08,16,24,16.70
2015,03,08,16,25,16.70
2015,03,08,16,26,16.70
2015,03,08,16,27,16.70
2015,03,08,16,28,16.70
2015,03,08,16,29,16.70
2015,03,08,16,30,16.70
2015,03,08,16,31,16.80
2015,03,08,16,32,16.80
2015,03,08,16,33,16.90
2015,03,08,16,34,17.00
2015,03,08,16,35,17.10
2015,03,08,16,36,17.10
2015,03,08,16,37,17.10
2015,03,08,16,38,17.20
2015,03,08,16,39,17.20
2015,03,08,16,40,17.20
2015,03,08,16,41,17.10
2015,03,08,16,42,17.10
2015,03,08,16,43,17.10
2015,03,08,16,44,17.10
2015,03,08,16,45,17.20
2015,03,08,16,46,17.20
2015,03,08,16,47,17.20
2015,03,08,16,48,17.20
2015,03,08,16,49,17.20
2015,03,08,16,50,17.30
2015,03,08,16,51,17.30
2015,03,08,16,52,17.30
2015,03,08,16,53,17.20
2015,03,08,16,54,17.20
2015,03,08,16,55,17.20
2015,03,08,16,56,17.10
2015,03,08,16,57,17.10
2015,03,08,16,58,17.10
2015,03,08,16,59,17.10
2015,03,08,17,00,17.00
2015,03,08,17,01,17.00
2015,03,08,17,02,16.90
2015,03,08,17,03,16.90
2015,03,08,17,04,16.80
2015,03,08,17,05,16.80
2015,03,08,17,06,16.80
2015,03,08,17,07,16.70
2015,03,08,17,08,16.70
2015,03,08,17,09,16.70
2015,03,08,17,10,16.60
2015,03,08,17,11,16.60
2015,03,08,17,12,16.60
2015,03,08,17,13,16.50
2015,03,08,17,14,16.50
2015,03,08,17,15,16.50
2015,03,08,17,16,16.40
2015,03,08,17,17,16.40
2015,03,08,17,18,16.40
2015,03,08,17,19,16.40
2015,03,08,17,20,16.40
2015,03,08,17,21,16.40
2015,03,08,17,22,16.40
2015,03,08,17,23,16.40
2015,03,08,17,24,16.40
2015,03,08,17,25,16.40
2015,03,08,17,26,16.40
2015,03,08,17,27,16.40
2015,03,08,17,28,16.30
2015,03,08,17,29,16.30
2015,03,08,17,30,16.30
2015,03,08,17,31,16.30
2015,03,08,17,32,16.30
2015,03,08,17,33,16.30
2015,03,08,17,34,16.30
2015,03,08,17,35,16.30
2015,03,08,17,36,16.30
2015,03,08,17,37,16.30
2015,03,08,17,38,16.30
2015,03,08,17,39,16.30
2015,03,08,17,40,16.30
2015,03,08,17,41,16.20
2015,03,08,17,42,16.20
2015,03,08,17,43,16.20
2015,03,08,17,44,16.20
2015,03,08,17,45,16.10
2015,03,08,17,46,16.10
2015,03,08,17,47,16.10
2015,03,08,17,48,16.10
2015,03,08,17,49,16.00
2015,03,08,17,50,16.00
2015,03,08,17,51,16.00
2015,03,08,17,52,16.00
2015,03,08,17,53,16.00
2015,03,08,17,54,16.00
2015,03,08,17,55,15.90
2015,03,08,17,56,15.90
2015,03,08,17,57,15.90
2015,03,08,17,58,15.90
2015,03,08,17,59,15.80
2015,03,08,18,00,15.80
2015,03,08,18,01,15.70
2015,03,08,18,02,15.70
2015,03,08,18,03,15.70
2015,03,08,18,04,15.60
2015,03,08,18,05,15.60
2015,03,08,18,06,15.50
2015,03,08,18,07,15.50
2015,03,08,18,08,15.40
2015,03,08,18,09,15.40
2015,03,08,18,10,15.40
2015,03,08,18,11,15.40
2015,03,08,18,12,15.30
2015,03,08,18,13,15.30
2015,03,08,18,14,15.30
2015,03,08,18,15,15.20
2015,03,08,18,16,15.20
2015,03,08,18,17,15.10
2015,03,08,18,18,15.00
2015,03,08,18,19,15.00
2015,03,08,18,20,14.90
2015,03,08,18,21,14.90
2015,03,08,18,22,14.80
2015,03,08,18,23,14.80
2015,03,08,18,24,14.70
2015,03,08,18,25,14.70
2015,03,08,18,26,14.60
2015,03,08,18,27,14.60
2015,03,08,18,28,14.50
2015,03,08,18,29,14.50
2015,03,08,18,30,14.40
2015,03,08,18,31,14.30
2015,03,08,18,32,14.30
2015,03,08,18,33,14.30
2015,03,08,18,34,14.20
2015,03,08,18,35,14.20
2015,03,08,18,36,14.10
2015,03,08,18,37,14.10
2015,03,08,18,38,14.00
2015,03,08,18,39,13.90
2015,03,08,18,40,13.90
2015,03,08,18,41,13.80
2015,03,08,18,42,13.80
2015,03,08,18,43,13.70
2015,03,08,18,44,13.70
2015,03,08,18,45,13.70
2015,03,08,18,46,13.60
2015,03,08,18,47,13.60
2015,03,08,18,48,13.50
2015,03,08,18,49,13.50
2015,03,08,18,50,13.50
2015,03,08,18,51,13.40
2015,03,08,18,52,13.40
2015,03,08,18,53,13.40
2015,03,08,18,54,13.40